Weather Roundup
Issued by NWS

Home | Current Version | Previous Version | Graphics & Text | Print | Product List | Glossary Off
Versions: 1 2 3 4 5 6 7 8 9 10 11 12 13 14 15 16 17 18 19 20 21 22 23 24 25 26 27 28 29 30 31 32 33 34 35 36 37 38 39 40 41 42 43 44 45 46 47 48 49 50

000
NZUS93 KARX 252110
HRRWXR

CURRENT HOURLY OBSERVATIONS ACROSS
MUCH OF THE UPPER MISSISSIPPI VALLEY
NATIONAL WEATHER SERVICE LA CROSSE WI
400 PM CDT SAT MAR 25 2017


...SOUTHEAST MINNESOTA...


CITY           SKY/WX    TMP DP  RH WIND       PRES   REMARKS
ROCHESTER      CLOUDY    38  35  89 NE17      30.02F WCI  28
ROCHESTER/MAYO CLOUDY    39  35  85 NE12G17   30.04S WCI  31
WINONA         CLOUDY    41  34  75 E8        30.06F
AUSTIN         RAIN      37  36  93 NE15G21   30.00F WCI  28
ALBERT LEA     CLOUDY    37  36  93 NE13G21   30.01S WCI  29
DODGE CENTER   CLOUDY    37  36  93 NE18      30.02F WCI  27
PRESTON        CLOUDY    37  35  93 NE12      30.01F FOG     WCI  29
OWATONNA       CLOUDY    39  34  81 NE13G18   30.04S WCI  32
FARIBAULT      CLOUDY    39  36  87 NE12G18   30.05F WCI  32
$$

...ELSEWHERE IN MINNESOTA...


CITY           SKY/WX    TMP DP  RH WIND       PRES   REMARKS
MINNEAPOLIS    CLOUDY    42  32  67 NE16      30.08F
INTNL FALLS    SUNNY     41  25  53 SE6       30.15F
DULUTH         CLOUDY    32  28  85 E21       30.16F WCI  20
RED WING       CLOUDY    43  32  65 E13       30.07F
REDWOOD FALLS  CLOUDY    42  35  76 NE8       30.05F
MANKATO        CLOUDY    40  34  79 E16       30.04F WCI  31
WORTHINGTON    CLOUDY    38  36  92 NE17      30.00F FOG     WCI  28
FAIRMONT       CLOUDY    38  36  92 NE13      30.02F WCI  30
$$

...SOUTHWEST WISCONSIN...


CITY           SKY/WX    TMP DP  RH WIND       PRES   REMARKS
LA CROSSE      LGT RAIN  40  36  86 NE7       30.06F
PRAIRIE DU CHI RAIN      39  38  97 NE9       30.00S WCI  32
BOSCOBEL       CLOUDY    40  37  89 NE10      30.02F WCI  33
LONE ROCK      CLOUDY    40  36  86 E16G26    30.04R FOG     WCI  31
PLATTEVILLE    CLOUDY    41  41 100 E21G29    29.96F
FORT MC COY    LGT RAIN  37  36  96 E13       30.07F WCI  29
CAMP DOUGLAS   LGT RAIN  37  35  94 E13       30.07F WCI  29
MAUSTON-NEW LI DRIZZLE   37  36  94 NE6       30.07F WCI  33
VIROQUA        CLOUDY    37  37  98 E16G24    30.01F WCI  28
WIS DELLS      CLOUDY    37  36  96 E12G21    30.06R FOG     WCI  29
$$

...ELSEWHERE IN WISCONSIN...


CITY           SKY/WX    TMP DP  RH WIND       PRES   REMARKS
MILWAUKEE      LGT RAIN  39  36  89 NE14      30.08S WCI  31
MADISON        CLOUDY    39  37  92 E17G23    30.05S WCI  30
GREEN BAY      CLOUDY    37  35  92 NE21G28   30.17F WCI  26
EAU CLAIRE     CLOUDY    41  33  73 E15       30.09F
BLACK RVR FLS  CLOUDY    41  33  74 E16       30.08S
MEDFORD        CLOUDY    38  32  78 E17       30.10F WCI  29
WAUSAU         CLOUDY    40  32  73 E14       30.11F WCI  32
WIS RAPIDS     CLOUDY    38  34  85 E16G22    30.12S WCI  29
MARSHFIELD     CLOUDY    39  32  76 E10G20    30.09F WCI  32
RICE LAKE      CLOUDY    43  32  65 E10       30.12F
$$

...NORTHEAST IOWA...


CITY           SKY/WX    TMP DP  RH WIND       PRES   REMARKS
WATERLOO       CLOUDY    41  39  93 NE18      29.94F FOG
DUBUQUE        CLOUDY    41  40  96 NE16      29.95R FOG
DECORAH        LGT RAIN  37  37 100 NE15      29.98F WCI  28
MASON CITY     LGT RAIN  38  36  92 NE17      29.99F WCI  28
CHARLES CITY   RAIN      39  39 100 NE20      29.97F WCI  30
OELWEIN        LGT RAIN  41  41 100 NE20      29.94F
$$

...ELSEWHERE IN IOWA...


CITY           SKY/WX    TMP DP  RH WIND       PRES   REMARKS
DES MOINES     CLOUDY    43  40  89 NE12      29.91S
IOWA CITY      CLOUDY    46  44  93 NE13      29.91S
FORT DODGE     CLOUDY    39  36  87 NE13      29.96F WCI  32
MARSHALLTOWN   LGT RAIN  42  40  92 NE16      29.92S
CEDAR RAPIDS   CLOUDY    43  43 100 E15       29.90S FOG
$$

...NORTHERN ILLINOIS...


CITY           SKY/WX    TMP DP  RH WIND       PRES   REMARKS
CHICAGO-OHARE  LGT RAIN  44  41  89 N12       29.99F FOG
CHICAGO-MIDWAY CLOUDY    48  46  93 NE12      29.98F FOG
MOLINE         CLOUDY    54  50  86 NE13      29.88F
ROCKFORD       DRIZZLE   43  40  89 NE14      30.00S FOG
PEORIA           N/A     60  58  92 MISG      29.89S
$$

NOTE: "FAIR" INDICATES FEW OR NO CLOUDS BELOW 12,000 FEET WITH NO
SIGNIFICANT WEATHER AND/OR OBSTRUCTIONS TO VISIBILITY. WIND
SPEEDS ARE IN MILES-PER-HOUR.




USA.gov is the U.S. government's official web portal to all federal, state and local government web resources and services.